GEFSSE_prec_meanprecacc_204.txt.gz
Total_Precipitation_Accumulation
1.44 1.42 2.19 2.28 1.89 1.70 1.71 1.65 1.64 1.70 1.65 1.59 1.52 1.41 1.34 1.18 1.01 0.86 0.74 0.64 0.66 0.73 0.71 0.67 0.65 0.59 0.44 0.35 0.38 0.45 0.53 0.66 0.74 0.74 0.86 0.94 0.93 1.06 1.21 1.42 1.64 1.85 1.51
1.19 1.38 2.19 2.29 1.91 1.60 1.53 1.50 1.58 1.65 1.62 1.50 1.40 1.39 1.23 1.03 0.88 0.79 0.73 0.65 0.62 0.66 0.70 0.69 0.68 0.60 0.46 0.44 0.48 0.51 0.55 0.62 0.74 0.79 1.01 1.13 1.09 1.13 1.05 1.22 1.50 1.71 1.51
1.23 1.31 1.77 2.06 1.85 1.56 1.51 1.57 1.58 1.55 1.51 1.47 1.39 1.37 1.11 0.96 0.88 0.81 0.79 0.75 0.69 0.63 0.65 0.74 0.74 0.68 0.55 0.52 0.57 0.60 0.64 0.67 0.78 0.92 1.37 2.00 1.49 1.21 1.25 1.37 1.47 1.44 1.47
1.24 1.24 1.49 1.91 1.73 1.52 1.51 1.58 1.57 1.58 1.54 1.54 1.42 1.23 0.99 0.95 0.92 0.88 0.88 0.85 0.79 0.68 0.63 0.65 0.67 0.65 0.61 0.60 0.62 0.62 0.70 0.78 0.90 1.04 1.43 1.94 1.87 1.52 1.40 1.45 1.45 1.33 1.43
1.20 1.27 1.64 1.85 1.65 1.50 1.39 1.41 1.52 1.56 1.52 1.47 1.34 1.08 0.94 0.91 0.90 0.93 0.95 0.89 0.81 0.79 0.71 0.68 0.65 0.60 0.59 0.56 0.62 0.69 0.75 0.89 1.11 1.11 1.43 1.85 2.18 1.70 1.35 1.46 1.56 1.42 1.48
1.12 1.18 1.44 1.71 1.58 1.41 1.34 1.35 1.29 1.23 1.24 1.32 1.24 1.03 0.91 0.94 0.93 0.92 0.88 0.83 0.80 0.79 0.77 0.74 0.69 0.63 0.61 0.57 0.62 0.71 0.80 0.92 1.04 1.20 1.50 1.90 2.09 1.65 1.31 1.40 1.57 1.63 1.62
1.10 1.05 1.22 1.45 1.39 1.29 1.34 1.38 1.36 1.21 1.20 1.21 1.16 1.08 0.95 0.91 0.93 0.92 0.84 0.74 0.70 0.70 0.69 0.70 0.66 0.62 0.57 0.57 0.59 0.65 0.77 0.77 0.87 1.20 1.47 1.83 1.71 1.44 1.22 1.35 1.60 1.76 1.71
1.08 0.98 1.03 1.16 1.14 1.10 1.18 1.42 1.47 1.21 1.21 1.17 1.04 0.97 0.92 0.83 0.82 0.81 0.76 0.74 0.71 0.71 0.70 0.67 0.62 0.57 0.54 0.55 0.60 0.64 0.75 0.65 0.62 0.89 1.18 1.58 1.67 1.53 1.22 1.23 1.45 1.59 1.68
1.20 1.06 0.97 0.92 0.94 1.03 1.18 1.17 1.14 1.18 1.28 1.22 1.01 0.93 0.93 0.78 0.68 0.66 0.68 0.69 0.68 0.71 0.74 0.68 0.59 0.54 0.55 0.59 0.63 0.66 0.72 0.70 0.65 0.80 0.94 1.30 1.55 1.54 1.26 1.20 1.33 1.43 1.63
1.10 0.97 0.85 0.80 0.83 0.87 0.98 1.06 1.04 1.04 1.12 1.11 1.00 0.97 0.97 0.77 0.65 0.65 0.64 0.67 0.70 0.73 0.81 0.76 0.64 0.60 0.60 0.63 0.65 0.62 0.61 0.57 0.60 0.70 0.96 1.08 1.50 1.51 1.22 1.12 1.20 1.25 1.33
0.98 0.89 0.81 0.73 0.74 0.78 0.86 0.91 1.02 1.04 1.05 0.98 0.91 0.94 0.83 0.62 0.57 0.61 0.57 0.71 0.82 0.96 0.99 0.91 0.80 0.72 0.66 0.60 0.62 0.61 0.48 0.45 0.63 0.72 0.93 1.17 1.48 1.44 1.19 1.08 1.14 1.10 1.09
0.95 0.87 0.79 0.78 0.72 0.70 0.74 0.99 1.15 1.01 0.92 0.80 0.82 0.80 0.78 0.75 0.73 0.54 0.56 0.74 0.81 0.89 0.94 0.90 0.86 0.71 0.54 0.44 0.50 0.52 0.39 0.46 0.57 0.65 0.80 1.23 1.46 1.45 1.27 1.11 1.08 1.04 0.99
0.91 0.83 0.73 0.70 0.64 0.61 0.74 0.91 1.09 1.13 1.09 1.05 0.90 0.90 0.86 0.77 0.66 0.52 0.49 0.55 0.61 0.70 0.69 0.77 0.76 0.55 0.46 0.47 0.52 0.47 0.43 0.47 0.57 0.66 0.88 1.33 1.53 1.52 1.40 1.22 1.14 1.07 1.01
0.78 0.81 0.70 0.65 0.59 0.55 0.53 0.64 0.79 0.84 0.83 0.84 0.85 0.79 0.80 0.82 0.75 0.64 0.59 0.63 0.65 0.65 0.72 0.79 0.78 0.65 0.56 0.48 0.47 0.50 0.53 0.53 0.61 0.76 0.95 1.27 1.56 1.62 1.58 1.40 1.32 1.23 1.15
0.73 0.72 0.72 0.68 0.63 0.68 0.64 0.59 0.57 0.62 0.68 0.73 0.80 0.72 0.67 0.70 0.73 0.75 0.69 0.74 0.71 0.69 0.73 0.75 0.65 0.64 0.63 0.54 0.50 0.54 0.62 0.60 0.71 0.77 0.90 1.15 1.52 1.89 1.93 1.74 1.54 1.37 1.33
0.67 0.75 0.74 0.66 0.68 0.66 0.61 0.62 0.63 0.63 0.66 0.69 0.73 0.66 0.60 0.60 0.63 0.74 0.73 0.78 0.70 0.72 0.81 0.75 0.69 0.72 0.72 0.62 0.55 0.59 0.62 0.63 0.70 0.79 0.87 1.07 1.28 1.69 2.06 2.10 1.96 1.75 1.56
0.54 0.66 0.75 0.72 0.73 0.69 0.65 0.68 0.70 0.68 0.63 0.66 0.69 0.62 0.58 0.61 0.62 0.75 0.79 0.78 0.75 0.79 0.82 0.86 0.87 0.82 0.72 0.65 0.61 0.59 0.60 0.62 0.72 0.75 0.78 0.98 1.02 1.09 1.53 2.05 2.27 2.19 1.94
0.49 0.57 0.68 0.69 0.74 0.76 0.76 0.78 0.77 0.70 0.69 0.72 0.75 0.70 0.66 0.64 0.67 0.87 0.92 0.82 0.87 0.98 1.02 1.06 1.03 0.94 0.85 0.81 0.81 0.77 0.68 0.66 0.72 0.76 0.77 0.83 0.88 0.82 0.92 1.20 1.53 1.80 2.02
0.51 0.52 0.57 0.64 0.83 0.85 0.80 0.86 0.88 0.85 0.89 0.91 0.92 0.90 0.84 0.81 0.89 1.06 1.13 1.04 1.02 1.18 1.16 1.06 1.10 1.13 1.05 1.05 1.01 1.00 0.88 0.79 0.79 0.75 0.85 0.96 0.98 0.95 0.94 0.81 0.95 1.14 1.55
0.46 0.44 0.50 0.61 0.74 0.83 0.97 1.05 1.14 1.15 1.15 1.26 1.32 1.29 1.13 1.07 1.13 1.28 1.38 1.34 1.30 1.43 1.43 1.32 1.42 1.44 1.35 1.39 1.25 1.16 1.09 1.04 1.01 0.98 0.98 1.06 1.14 1.05 1.07 0.95 0.90 0.77 0.94
0.36 0.36 0.42 0.60 0.77 0.91 1.02 1.15 1.40 1.57 1.66 1.65 1.65 1.71 1.63 1.44 1.53 1.64 1.61 1.82 1.90 1.88 1.89 1.83 1.95 1.99 1.74 1.56 1.85 1.84 1.45 1.16 1.05 1.09 1.16 1.19 1.26 1.29 1.26 1.17 1.09 0.91 0.79
0.26 0.29 0.35 0.50 0.75 0.98 1.18 1.36 1.55 1.87 2.03 2.03 2.10 2.03 1.97 1.86 1.87 1.79 1.87 2.08 2.13 2.25 2.35 2.19 2.32 2.41 2.10 1.80 2.20 2.66 2.20 1.77 1.18 0.96 1.08 1.19 1.34 1.40 1.34 1.18 1.16 1.09 0.97
0.21 0.23 0.28 0.42 0.64 0.94 1.23 1.48 1.69 1.92 2.18 2.27 2.18 2.14 2.16 2.23 2.26 2.15 2.11 2.23 2.25 2.33 2.53 2.57 2.53 2.64 2.57 2.23 2.19 2.64 2.56 2.23 1.78 1.22 1.10 1.19 1.35 1.46 1.51 1.46 1.29 1.23 1.15
0.23 0.24 0.27 0.42 0.57 0.77 1.02 1.35 1.61 1.86 2.17 2.25 2.23 2.21 2.26 2.35 2.43 2.38 2.33 2.39 2.40 2.35 2.48 2.58 2.56 2.78 2.97 2.70 2.43 2.20 2.12 2.16 2.18 1.75 1.33 1.26 1.41 1.49 1.57 1.49 1.44 1.48 1.51
0.30 0.30 0.37 0.49 0.63 0.80 1.01 1.33 1.66 1.84 2.00 2.21 2.23 2.14 2.09 2.16 2.16 2.13 2.24 2.39 2.41 2.38 2.40 2.59 2.70 2.89 2.89 2.81 2.68 2.54 2.36 2.16 1.84 1.94 1.82 1.58 1.56 1.47 1.56 1.67 1.67 1.70 1.70
0.41 0.44 0.52 0.63 0.81 0.94 1.01 1.14 1.31 1.52 1.79 1.93 2.04 2.07 2.09 2.10 1.99 1.90 2.00 2.10 2.18 2.23 2.22 2.28 2.44 2.59 2.77 2.91 2.84 2.67 2.58 2.46 2.28 2.17 1.90 1.75 1.81 1.64 1.53 1.55 1.61 1.64 1.79

GEFSSE_prec_meanprecacc_210.txt.gz
Total_Precipitation_Accumulation
1.52 1.53 2.36 2.50 2.08 1.82 1.80 1.75 1.75 1.81 1.75 1.67 1.60 1.49 1.44 1.27 1.09 0.94 0.82 0.71 0.72 0.78 0.76 0.70 0.68 0.61 0.47 0.38 0.40 0.48 0.57 0.70 0.78 0.79 0.90 1.00 0.97 1.10 1.26 1.47 1.68 1.92 1.58
1.25 1.49 2.37 2.47 2.07 1.71 1.61 1.57 1.68 1.78 1.73 1.61 1.51 1.51 1.35 1.14 0.99 0.90 0.82 0.72 0.69 0.74 0.77 0.73 0.70 0.62 0.50 0.46 0.50 0.55 0.59 0.66 0.79 0.84 1.06 1.19 1.14 1.19 1.10 1.28 1.54 1.76 1.57
1.30 1.42 1.89 2.21 2.02 1.67 1.60 1.68 1.69 1.68 1.64 1.60 1.51 1.51 1.24 1.08 0.99 0.90 0.88 0.82 0.76 0.70 0.70 0.79 0.77 0.70 0.57 0.54 0.60 0.65 0.71 0.73 0.82 0.95 1.41 2.08 1.57 1.32 1.33 1.43 1.54 1.49 1.52
1.30 1.32 1.58 2.05 1.89 1.67 1.62 1.72 1.72 1.70 1.63 1.62 1.51 1.31 1.07 1.04 1.00 0.96 0.95 0.92 0.85 0.74 0.68 0.70 0.70 0.67 0.63 0.62 0.64 0.65 0.76 0.84 0.95 1.06 1.46 2.02 1.99 1.64 1.47 1.50 1.51 1.40 1.50
1.25 1.33 1.74 1.98 1.83 1.69 1.54 1.56 1.64 1.64 1.58 1.53 1.40 1.13 0.99 0.96 0.96 1.00 1.01 0.95 0.87 0.85 0.76 0.72 0.68 0.63 0.62 0.59 0.65 0.73 0.80 0.94 1.14 1.12 1.44 1.88 2.23 1.75 1.40 1.51 1.61 1.49 1.55
1.16 1.24 1.51 1.82 1.79 1.63 1.47 1.47 1.37 1.29 1.30 1.39 1.30 1.08 0.96 0.98 0.97 0.97 0.94 0.89 0.87 0.86 0.83 0.78 0.72 0.67 0.65 0.61 0.66 0.75 0.85 0.95 1.05 1.21 1.51 1.92 2.14 1.71 1.36 1.44 1.62 1.71 1.72
1.12 1.08 1.26 1.54 1.55 1.49 1.47 1.47 1.42 1.26 1.25 1.26 1.21 1.13 0.99 0.96 0.98 0.97 0.88 0.79 0.75 0.77 0.77 0.75 0.70 0.66 0.60 0.60 0.64 0.68 0.80 0.80 0.88 1.21 1.48 1.86 1.74 1.48 1.27 1.39 1.65 1.85 1.81
1.10 1.01 1.07 1.25 1.27 1.22 1.26 1.50 1.52 1.25 1.25 1.21 1.07 1.01 0.96 0.88 0.88 0.87 0.80 0.79 0.77 0.79 0.80 0.73 0.66 0.60 0.57 0.58 0.63 0.68 0.79 0.67 0.63 0.90 1.20 1.61 1.71 1.57 1.25 1.27 1.49 1.66 1.77
1.23 1.08 1.00 0.97 1.00 1.10 1.26 1.24 1.19 1.21 1.31 1.26 1.05 0.98 1.01 0.85 0.77 0.75 0.75 0.78 0.77 0.81 0.83 0.75 0.64 0.57 0.58 0.62 0.67 0.70 0.75 0.72 0.67 0.81 0.96 1.34 1.60 1.59 1.31 1.24 1.37 1.48 1.70
1.13 0.99 0.86 0.81 0.84 0.91 1.03 1.10 1.08 1.08 1.15 1.15 1.06 1.04 1.05 0.84 0.73 0.72 0.69 0.74 0.78 0.81 0.87 0.81 0.68 0.63 0.62 0.66 0.68 0.64 0.63 0.59 0.62 0.71 1.00 1.11 1.57 1.59 1.29 1.16 1.24 1.31 1.39
1.00 0.90 0.82 0.74 0.75 0.81 0.88 0.91 1.03 1.05 1.07 0.99 0.92 0.95 0.85 0.65 0.63 0.66 0.62 0.77 0.87 1.01 1.02 0.95 0.85 0.75 0.68 0.63 0.65 0.65 0.52 0.49 0.66 0.74 0.96 1.22 1.57 1.53 1.25 1.11 1.18 1.16 1.14
0.98 0.88 0.80 0.79 0.74 0.72 0.75 0.99 1.15 1.02 0.92 0.80 0.82 0.80 0.78 0.77 0.75 0.57 0.59 0.78 0.84 0.93 0.97 0.94 0.90 0.74 0.55 0.45 0.53 0.56 0.44 0.50 0.60 0.68 0.84 1.30 1.53 1.51 1.31 1.15 1.12 1.08 1.04
0.93 0.85 0.74 0.73 0.66 0.62 0.74 0.91 1.09 1.13 1.09 1.05 0.91 0.90 0.86 0.78 0.68 0.54 0.51 0.56 0.62 0.71 0.71 0.78 0.78 0.56 0.47 0.49 0.54 0.49 0.45 0.50 0.59 0.69 0.94 1.41 1.60 1.58 1.46 1.26 1.18 1.12 1.08
0.79 0.82 0.71 0.65 0.60 0.55 0.53 0.64 0.79 0.84 0.84 0.85 0.86 0.79 0.80 0.82 0.75 0.65 0.60 0.63 0.66 0.66 0.73 0.80 0.79 0.66 0.58 0.50 0.49 0.52 0.55 0.56 0.65 0.82 1.03 1.34 1.64 1.70 1.66 1.46 1.37 1.28 1.21
0.73 0.73 0.72 0.68 0.63 0.68 0.64 0.60 0.57 0.62 0.68 0.73 0.80 0.72 0.67 0.70 0.73 0.75 0.69 0.75 0.71 0.71 0.74 0.76 0.66 0.65 0.64 0.54 0.52 0.57 0.65 0.63 0.74 0.82 0.98 1.21 1.58 1.97 2.02 1.82 1.59 1.42 1.39
0.67 0.76 0.75 0.66 0.68 0.66 0.62 0.63 0.64 0.63 0.66 0.69 0.73 0.66 0.60 0.60 0.63 0.74 0.73 0.79 0.71 0.74 0.82 0.76 0.71 0.72 0.72 0.63 0.57 0.61 0.64 0.66 0.74 0.86 0.97 1.15 1.34 1.75 2.12 2.15 2.00 1.79 1.61
0.55 0.67 0.76 0.72 0.73 0.69 0.65 0.69 0.71 0.69 0.64 0.66 0.69 0.62 0.58 0.61 0.62 0.75 0.79 0.78 0.76 0.80 0.84 0.87 0.88 0.82 0.73 0.66 0.63 0.62 0.62 0.66 0.77 0.84 0.91 1.09 1.09 1.14 1.57 2.09 2.31 2.23 1.99
0.50 0.58 0.69 0.70 0.74 0.76 0.76 0.78 0.77 0.72 0.71 0.73 0.75 0.70 0.66 0.64 0.67 0.87 0.92 0.82 0.87 0.98 1.02 1.07 1.04 0.94 0.86 0.82 0.84 0.79 0.71 0.69 0.78 0.86 0.90 0.92 0.94 0.86 0.96 1.24 1.56 1.83 2.07
0.51 0.52 0.57 0.64 0.83 0.85 0.80 0.86 0.89 0.87 0.92 0.93 0.94 0.90 0.84 0.81 0.89 1.06 1.13 1.04 1.02 1.18 1.17 1.06 1.11 1.13 1.06 1.07 1.03 1.02 0.90 0.81 0.82 0.81 0.90 0.99 1.01 0.98 0.98 0.84 0.97 1.19 1.61
0.46 0.44 0.50 0.61 0.74 0.84 0.97 1.05 1.14 1.15 1.16 1.28 1.34 1.30 1.13 1.08 1.13 1.28 1.38 1.34 1.31 1.43 1.44 1.33 1.43 1.45 1.36 1.41 1.28 1.18 1.10 1.05 1.03 1.01 1.01 1.08 1.16 1.07 1.09 0.97 0.92 0.80 0.98
0.36 0.36 0.42 0.60 0.77 0.92 1.02 1.16 1.41 1.57 1.67 1.66 1.67 1.72 1.63 1.44 1.53 1.64 1.61 1.83 1.90 1.89 1.90 1.84 1.96 2.00 1.75 1.59 1.90 1.86 1.46 1.18 1.07 1.12 1.19 1.21 1.29 1.32 1.27 1.18 1.11 0.94 0.84
0.26 0.29 0.36 0.51 0.75 0.98 1.19 1.36 1.55 1.87 2.04 2.04 2.11 2.03 1.97 1.86 1.88 1.80 1.87 2.09 2.15 2.26 2.35 2.20 2.33 2.42 2.12 1.83 2.24 2.68 2.22 1.80 1.21 0.98 1.10 1.22 1.36 1.43 1.36 1.19 1.17 1.14 1.06
0.21 0.23 0.29 0.42 0.65 0.94 1.24 1.49 1.69 1.93 2.19 2.28 2.18 2.14 2.16 2.23 2.27 2.15 2.11 2.23 2.25 2.34 2.54 2.59 2.54 2.66 2.59 2.25 2.21 2.66 2.58 2.25 1.81 1.24 1.11 1.20 1.36 1.48 1.52 1.47 1.32 1.32 1.24
0.24 0.25 0.28 0.42 0.58 0.78 1.03 1.36 1.61 1.87 2.18 2.26 2.24 2.22 2.27 2.36 2.43 2.38 2.33 2.39 2.40 2.36 2.49 2.58 2.56 2.79 2.99 2.73 2.45 2.20 2.13 2.17 2.19 1.77 1.34 1.26 1.42 1.49 1.59 1.52 1.53 1.63 1.59
0.30 0.31 0.38 0.50 0.63 0.80 1.02 1.34 1.66 1.84 2.01 2.21 2.24 2.15 2.10 2.17 2.17 2.13 2.25 2.40 2.42 2.39 2.40 2.59 2.71 2.90 2.91 2.83 2.69 2.54 2.36 2.17 1.85 1.95 1.82 1.58 1.56 1.47 1.56 1.70 1.77 1.84 1.79
0.42 0.45 0.53 0.64 0.82 0.95 1.02 1.15 1.32 1.52 1.80 1.93 2.04 2.08 2.11 2.12 1.99 1.91 2.00 2.10 2.19 2.24 2.22 2.29 2.44 2.60 2.78 2.93 2.86 2.68 2.58 2.47 2.29 2.18 1.90 1.75 1.82 1.64 1.54 1.56 1.64 1.72 1.91

GEFSSE_prec_meanprecacc_216.txt.gz
Total_Precipitation_Accumulation
1.61 1.62 2.45 2.58 2.15 1.90 1.88 1.83 1.82 1.88 1.85 1.79 1.71 1.60 1.54 1.38 1.17 1.03 0.91 0.79 0.77 0.84 0.82 0.75 0.72 0.64 0.50 0.41 0.43 0.52 0.62 0.75 0.82 0.82 0.94 1.05 1.02 1.15 1.32 1.53 1.78 2.01 1.67
1.35 1.60 2.49 2.55 2.14 1.78 1.68 1.64 1.75 1.87 1.82 1.70 1.61 1.61 1.45 1.28 1.12 0.98 0.91 0.80 0.75 0.81 0.84 0.79 0.76 0.66 0.52 0.49 0.54 0.59 0.64 0.70 0.81 0.87 1.11 1.26 1.20 1.24 1.15 1.34 1.62 1.86 1.67
1.36 1.51 1.97 2.28 2.09 1.75 1.65 1.74 1.77 1.76 1.74 1.70 1.61 1.62 1.34 1.19 1.13 1.03 0.95 0.88 0.81 0.75 0.75 0.85 0.84 0.75 0.60 0.57 0.62 0.67 0.75 0.76 0.86 1.01 1.56 2.27 1.68 1.36 1.37 1.47 1.59 1.55 1.59
1.36 1.40 1.63 2.09 1.94 1.74 1.70 1.81 1.84 1.81 1.75 1.74 1.63 1.43 1.17 1.13 1.11 1.10 1.07 1.01 0.90 0.79 0.75 0.78 0.79 0.74 0.67 0.65 0.67 0.69 0.81 0.88 0.98 1.15 1.62 2.21 2.10 1.67 1.51 1.54 1.56 1.44 1.56
1.31 1.39 1.77 2.01 1.87 1.76 1.61 1.65 1.76 1.74 1.68 1.65 1.54 1.27 1.10 1.04 1.02 1.05 1.07 1.03 0.96 0.92 0.82 0.79 0.76 0.71 0.69 0.64 0.69 0.78 0.86 0.98 1.18 1.17 1.50 1.99 2.34 1.80 1.43 1.54 1.65 1.53 1.61
1.21 1.28 1.54 1.84 1.84 1.72 1.56 1.56 1.47 1.37 1.36 1.45 1.37 1.16 1.02 1.03 1.00 1.01 0.99 0.95 0.93 0.92 0.89 0.84 0.77 0.73 0.70 0.65 0.70 0.79 0.90 1.01 1.10 1.25 1.57 2.02 2.23 1.75 1.40 1.49 1.67 1.77 1.77
1.15 1.11 1.28 1.55 1.60 1.60 1.58 1.54 1.49 1.32 1.31 1.31 1.26 1.18 1.04 1.00 1.01 1.00 0.91 0.83 0.82 0.84 0.83 0.80 0.75 0.71 0.64 0.63 0.67 0.73 0.86 0.86 0.93 1.27 1.54 1.90 1.78 1.52 1.31 1.44 1.71 1.90 1.86
1.13 1.03 1.09 1.28 1.32 1.28 1.31 1.54 1.57 1.29 1.30 1.25 1.12 1.06 1.02 0.93 0.93 0.91 0.82 0.81 0.82 0.89 0.87 0.79 0.71 0.66 0.61 0.60 0.66 0.72 0.84 0.72 0.66 0.93 1.24 1.64 1.74 1.61 1.30 1.30 1.53 1.70 1.82
1.25 1.10 1.01 0.99 1.02 1.13 1.29 1.27 1.22 1.23 1.34 1.29 1.09 1.02 1.04 0.89 0.81 0.78 0.79 0.82 0.82 0.91 0.91 0.81 0.70 0.62 0.61 0.64 0.70 0.73 0.79 0.76 0.71 0.85 1.00 1.37 1.63 1.63 1.35 1.27 1.40 1.50 1.73
1.15 1.01 0.89 0.83 0.87 0.94 1.07 1.14 1.11 1.09 1.17 1.17 1.08 1.06 1.06 0.87 0.75 0.75 0.76 0.85 0.91 0.93 0.96 0.87 0.71 0.65 0.65 0.69 0.70 0.66 0.65 0.62 0.68 0.76 1.04 1.15 1.61 1.63 1.32 1.19 1.27 1.34 1.42
1.01 0.91 0.84 0.76 0.78 0.85 0.91 0.93 1.04 1.05 1.07 0.99 0.93 0.96 0.87 0.67 0.66 0.70 0.68 0.88 1.01 1.12 1.10 0.99 0.88 0.78 0.72 0.67 0.69 0.67 0.55 0.54 0.72 0.80 1.00 1.26 1.61 1.57 1.29 1.15 1.21 1.19 1.15
1.00 0.90 0.82 0.81 0.77 0.75 0.76 1.01 1.16 1.02 0.92 0.81 0.83 0.82 0.80 0.78 0.77 0.61 0.65 0.87 0.91 0.99 1.02 0.98 0.93 0.79 0.61 0.51 0.57 0.60 0.49 0.57 0.66 0.72 0.88 1.36 1.59 1.57 1.38 1.20 1.16 1.11 1.05
0.95 0.87 0.76 0.77 0.69 0.64 0.75 0.93 1.10 1.14 1.10 1.06 0.91 0.91 0.86 0.78 0.68 0.56 0.58 0.65 0.71 0.78 0.75 0.81 0.81 0.61 0.52 0.54 0.57 0.52 0.49 0.55 0.64 0.72 0.97 1.46 1.67 1.65 1.53 1.31 1.21 1.14 1.12
0.80 0.84 0.73 0.70 0.61 0.55 0.53 0.64 0.80 0.84 0.84 0.85 0.86 0.79 0.80 0.82 0.75 0.66 0.64 0.69 0.73 0.72 0.77 0.83 0.82 0.69 0.60 0.52 0.51 0.54 0.57 0.58 0.67 0.85 1.05 1.39 1.68 1.76 1.72 1.51 1.41 1.32 1.27
0.74 0.74 0.73 0.69 0.64 0.68 0.65 0.60 0.58 0.63 0.68 0.73 0.80 0.72 0.67 0.70 0.73 0.75 0.71 0.78 0.76 0.75 0.78 0.79 0.67 0.66 0.65 0.56 0.54 0.58 0.66 0.65 0.77 0.85 0.99 1.24 1.61 2.01 2.07 1.89 1.64 1.47 1.45
0.68 0.77 0.76 0.66 0.68 0.66 0.62 0.63 0.65 0.64 0.67 0.69 0.74 0.66 0.60 0.61 0.63 0.74 0.74 0.80 0.73 0.77 0.85 0.79 0.71 0.73 0.73 0.64 0.58 0.63 0.67 0.69 0.76 0.90 1.01 1.17 1.36 1.77 2.15 2.20 2.04 1.83 1.67
0.55 0.67 0.76 0.72 0.73 0.69 0.66 0.69 0.71 0.70 0.65 0.67 0.70 0.63 0.58 0.62 0.63 0.75 0.79 0.78 0.76 0.81 0.85 0.89 0.88 0.82 0.74 0.67 0.65 0.64 0.65 0.69 0.86 0.97 1.01 1.14 1.12 1.17 1.60 2.13 2.35 2.28 2.05
0.50 0.58 0.69 0.70 0.74 0.76 0.76 0.78 0.78 0.73 0.72 0.74 0.76 0.71 0.66 0.65 0.68 0.87 0.92 0.82 0.87 0.98 1.04 1.09 1.05 0.96 0.87 0.83 0.85 0.82 0.74 0.78 0.99 1.07 1.01 0.96 0.98 0.89 1.00 1.28 1.61 1.89 2.13
0.52 0.53 0.57 0.64 0.83 0.85 0.80 0.86 0.89 0.87 0.93 0.94 0.94 0.90 0.84 0.81 0.89 1.06 1.13 1.04 1.03 1.18 1.17 1.07 1.12 1.15 1.07 1.09 1.04 1.03 0.93 0.93 1.00 0.96 0.97 1.03 1.05 1.02 1.01 0.87 1.00 1.23 1.68
0.47 0.45 0.50 0.61 0.74 0.84 0.97 1.05 1.14 1.15 1.16 1.28 1.34 1.31 1.13 1.08 1.13 1.29 1.38 1.35 1.31 1.44 1.45 1.34 1.45 1.47 1.38 1.43 1.30 1.19 1.12 1.09 1.08 1.06 1.05 1.13 1.21 1.11 1.14 1.02 0.96 0.82 1.02
0.37 0.37 0.42 0.60 0.77 0.92 1.02 1.16 1.41 1.57 1.67 1.67 1.68 1.73 1.64 1.44 1.53 1.64 1.61 1.84 1.92 1.90 1.91 1.86 1.98 2.02 1.77 1.61 1.92 1.89 1.49 1.21 1.09 1.15 1.23 1.25 1.33 1.35 1.31 1.24 1.18 1.00 0.89
0.27 0.30 0.36 0.51 0.75 0.98 1.19 1.36 1.55 1.87 2.04 2.04 2.11 2.04 1.98 1.86 1.88 1.80 1.88 2.10 2.16 2.28 2.37 2.22 2.36 2.45 2.13 1.84 2.27 2.72 2.28 1.85 1.25 1.03 1.14 1.25 1.39 1.46 1.41 1.30 1.30 1.25 1.14
0.22 0.24 0.29 0.42 0.65 0.95 1.24 1.49 1.69 1.93 2.19 2.28 2.19 2.15 2.18 2.24 2.27 2.15 2.11 2.24 2.26 2.35 2.55 2.60 2.56 2.68 2.61 2.26 2.23 2.69 2.63 2.31 1.88 1.32 1.16 1.23 1.38 1.50 1.58 1.60 1.45 1.41 1.30
0.24 0.25 0.29 0.43 0.58 0.78 1.04 1.36 1.62 1.87 2.19 2.27 2.25 2.24 2.28 2.37 2.44 2.38 2.33 2.39 2.41 2.38 2.50 2.59 2.57 2.80 3.00 2.74 2.46 2.22 2.15 2.20 2.25 1.84 1.40 1.29 1.43 1.51 1.64 1.63 1.66 1.71 1.63
0.31 0.31 0.39 0.51 0.64 0.81 1.02 1.34 1.66 1.85 2.01 2.22 2.24 2.16 2.10 2.18 2.18 2.14 2.25 2.40 2.42 2.40 2.41 2.60 2.71 2.90 2.93 2.85 2.71 2.56 2.38 2.20 1.89 1.98 1.86 1.61 1.57 1.47 1.59 1.78 1.87 1.91 1.82
0.43 0.46 0.54 0.64 0.82 0.95 1.03 1.15 1.32 1.53 1.81 1.94 2.05 2.09 2.11 2.12 2.00 1.91 2.01 2.11 2.19 2.25 2.24 2.29 2.45 2.61 2.80 2.94 2.88 2.69 2.61 2.52 2.34 2.21 1.92 1.77 1.83 1.65 1.55 1.60 1.72 1.82 1.96

GEFSSE_prec_meanprecacc_222.txt.gz
Total_Precipitation_Accumulation
1.66 1.69 2.56 2.66 2.19 1.92 1.91 1.85 1.85 1.90 1.90 1.86 1.78 1.66 1.60 1.43 1.21 1.05 0.93 0.82 0.80 0.86 0.84 0.77 0.74 0.66 0.53 0.44 0.46 0.58 0.67 0.80 0.87 0.88 1.01 1.10 1.08 1.19 1.36 1.57 1.81 2.04 1.73
1.39 1.65 2.56 2.61 2.19 1.81 1.71 1.67 1.78 1.88 1.85 1.75 1.67 1.67 1.50 1.33 1.17 1.02 0.94 0.83 0.77 0.83 0.86 0.81 0.78 0.69 0.56 0.52 0.57 0.63 0.68 0.75 0.89 0.95 1.19 1.33 1.26 1.29 1.19 1.38 1.65 1.91 1.75
1.40 1.55 2.02 2.33 2.14 1.78 1.69 1.77 1.79 1.78 1.77 1.75 1.67 1.68 1.40 1.25 1.18 1.07 0.99 0.91 0.84 0.77 0.78 0.88 0.87 0.78 0.62 0.60 0.66 0.71 0.79 0.85 0.97 1.09 1.62 2.31 1.71 1.41 1.41 1.51 1.63 1.61 1.64
1.40 1.43 1.66 2.14 1.99 1.78 1.73 1.84 1.88 1.85 1.80 1.81 1.72 1.50 1.23 1.19 1.16 1.14 1.13 1.06 0.94 0.82 0.77 0.80 0.82 0.77 0.71 0.68 0.71 0.73 0.85 0.97 1.12 1.23 1.65 2.23 2.12 1.70 1.53 1.57 1.61 1.49 1.59
1.34 1.42 1.79 2.04 1.90 1.77 1.62 1.68 1.81 1.77 1.74 1.75 1.65 1.36 1.15 1.08 1.08 1.11 1.13 1.08 1.00 0.96 0.85 0.81 0.79 0.74 0.73 0.66 0.72 0.82 0.91 1.05 1.25 1.21 1.51 2.00 2.36 1.84 1.45 1.58 1.70 1.57 1.65
1.23 1.30 1.55 1.86 1.87 1.75 1.59 1.60 1.50 1.40 1.39 1.49 1.44 1.24 1.11 1.12 1.06 1.06 1.03 0.99 0.97 0.97 0.93 0.87 0.81 0.76 0.73 0.67 0.74 0.84 0.96 1.07 1.14 1.27 1.58 2.03 2.25 1.80 1.44 1.53 1.72 1.82 1.81
1.16 1.12 1.30 1.57 1.62 1.63 1.61 1.56 1.49 1.33 1.33 1.33 1.29 1.21 1.08 1.04 1.04 1.03 0.94 0.86 0.85 0.88 0.88 0.84 0.78 0.73 0.65 0.65 0.70 0.77 0.90 0.89 0.96 1.29 1.56 1.92 1.82 1.59 1.37 1.48 1.76 1.95 1.90
1.14 1.04 1.10 1.29 1.32 1.28 1.32 1.54 1.57 1.30 1.31 1.26 1.14 1.10 1.06 0.96 0.95 0.93 0.85 0.85 0.85 0.92 0.93 0.84 0.75 0.68 0.63 0.63 0.70 0.77 0.89 0.75 0.68 0.95 1.25 1.66 1.78 1.67 1.36 1.33 1.57 1.74 1.86
1.25 1.10 1.02 0.99 1.03 1.13 1.29 1.28 1.22 1.24 1.35 1.30 1.10 1.03 1.06 0.91 0.82 0.80 0.81 0.85 0.86 0.94 0.98 0.89 0.76 0.65 0.64 0.67 0.75 0.77 0.83 0.78 0.73 0.89 1.01 1.39 1.68 1.68 1.38 1.30 1.43 1.54 1.77
1.16 1.02 0.90 0.84 0.87 0.95 1.08 1.16 1.12 1.10 1.17 1.17 1.09 1.06 1.07 0.87 0.76 0.76 0.79 0.91 0.97 0.98 1.05 0.99 0.79 0.70 0.68 0.72 0.74 0.69 0.68 0.64 0.70 0.79 1.06 1.18 1.67 1.68 1.35 1.22 1.29 1.36 1.44
1.02 0.92 0.85 0.78 0.80 0.86 0.92 0.95 1.05 1.06 1.08 1.00 0.93 0.97 0.87 0.68 0.66 0.71 0.73 0.98 1.11 1.21 1.21 1.13 0.99 0.85 0.76 0.71 0.72 0.69 0.57 0.55 0.73 0.83 1.03 1.33 1.67 1.62 1.34 1.20 1.25 1.21 1.18
1.00 0.90 0.82 0.82 0.79 0.77 0.77 1.02 1.16 1.02 0.93 0.81 0.84 0.82 0.80 0.78 0.78 0.62 0.69 0.92 0.96 1.05 1.12 1.09 1.04 0.87 0.67 0.54 0.60 0.62 0.51 0.59 0.69 0.75 0.94 1.44 1.66 1.65 1.46 1.26 1.21 1.15 1.10
0.96 0.87 0.76 0.78 0.70 0.64 0.75 0.93 1.10 1.14 1.11 1.07 0.92 0.91 0.86 0.78 0.69 0.57 0.60 0.71 0.76 0.83 0.80 0.87 0.86 0.65 0.55 0.55 0.59 0.54 0.51 0.57 0.68 0.75 1.01 1.54 1.75 1.73 1.60 1.37 1.26 1.19 1.16
0.82 0.85 0.74 0.70 0.61 0.55 0.54 0.64 0.80 0.85 0.85 0.86 0.87 0.80 0.81 0.82 0.76 0.67 0.67 0.75 0.80 0.75 0.80 0.85 0.84 0.71 0.62 0.53 0.53 0.55 0.58 0.61 0.71 0.87 1.07 1.43 1.74 1.82 1.78 1.55 1.46 1.39 1.31
0.75 0.75 0.74 0.69 0.64 0.68 0.65 0.60 0.58 0.63 0.69 0.74 0.81 0.73 0.67 0.70 0.74 0.77 0.74 0.82 0.79 0.77 0.80 0.82 0.69 0.67 0.66 0.56 0.55 0.59 0.68 0.67 0.79 0.86 1.01 1.27 1.67 2.06 2.12 1.93 1.69 1.52 1.52
0.68 0.77 0.76 0.67 0.68 0.66 0.62 0.63 0.65 0.64 0.67 0.70 0.74 0.67 0.60 0.61 0.63 0.75 0.76 0.83 0.76 0.80 0.88 0.80 0.72 0.74 0.74 0.64 0.59 0.64 0.68 0.70 0.77 0.91 1.02 1.19 1.39 1.81 2.19 2.24 2.08 1.88 1.74
0.56 0.68 0.76 0.72 0.73 0.69 0.66 0.69 0.71 0.70 0.65 0.67 0.70 0.63 0.58 0.62 0.63 0.75 0.80 0.80 0.79 0.83 0.86 0.89 0.90 0.84 0.75 0.68 0.66 0.66 0.67 0.70 0.87 0.98 1.02 1.15 1.14 1.20 1.64 2.18 2.41 2.35 2.12
0.51 0.58 0.69 0.70 0.74 0.76 0.76 0.78 0.78 0.73 0.72 0.74 0.76 0.71 0.66 0.65 0.68 0.87 0.93 0.82 0.88 0.99 1.04 1.09 1.06 0.97 0.87 0.84 0.87 0.84 0.77 0.81 1.00 1.09 1.03 0.98 1.00 0.92 1.03 1.34 1.68 1.96 2.21
0.54 0.53 0.57 0.64 0.83 0.85 0.80 0.87 0.89 0.87 0.93 0.94 0.94 0.90 0.85 0.82 0.89 1.06 1.13 1.05 1.03 1.19 1.18 1.08 1.13 1.15 1.07 1.10 1.06 1.06 0.97 0.97 1.03 0.98 0.99 1.05 1.08 1.06 1.04 0.91 1.05 1.29 1.76
0.51 0.47 0.51 0.61 0.74 0.84 0.97 1.06 1.14 1.15 1.16 1.28 1.34 1.31 1.13 1.08 1.13 1.29 1.38 1.35 1.31 1.45 1.46 1.34 1.46 1.47 1.38 1.44 1.30 1.21 1.15 1.13 1.11 1.08 1.08 1.15 1.23 1.13 1.16 1.05 0.99 0.85 1.06
0.40 0.39 0.44 0.61 0.77 0.92 1.02 1.16 1.41 1.57 1.67 1.67 1.68 1.73 1.64 1.44 1.53 1.64 1.61 1.84 1.92 1.91 1.91 1.86 1.99 2.03 1.78 1.61 1.93 1.90 1.52 1.23 1.11 1.18 1.26 1.29 1.36 1.38 1.35 1.29 1.22 1.03 0.92
0.31 0.32 0.37 0.51 0.76 0.99 1.19 1.37 1.56 1.87 2.04 2.04 2.12 2.04 1.98 1.86 1.88 1.80 1.88 2.10 2.16 2.28 2.37 2.22 2.36 2.45 2.14 1.85 2.28 2.74 2.31 1.88 1.28 1.05 1.17 1.29 1.43 1.49 1.43 1.33 1.32 1.27 1.16
0.26 0.26 0.30 0.43 0.66 0.96 1.25 1.50 1.70 1.93 2.19 2.28 2.19 2.16 2.18 2.24 2.27 2.15 2.11 2.24 2.27 2.35 2.56 2.61 2.56 2.68 2.61 2.27 2.23 2.70 2.66 2.34 1.92 1.37 1.20 1.26 1.41 1.53 1.60 1.62 1.47 1.43 1.32
0.27 0.27 0.31 0.44 0.60 0.79 1.05 1.37 1.63 1.88 2.19 2.27 2.25 2.24 2.28 2.37 2.44 2.38 2.33 2.40 2.41 2.38 2.51 2.60 2.57 2.80 3.00 2.74 2.46 2.23 2.18 2.23 2.28 1.88 1.46 1.33 1.45 1.53 1.65 1.65 1.68 1.72 1.66
0.33 0.33 0.41 0.52 0.65 0.82 1.04 1.35 1.68 1.86 2.01 2.22 2.25 2.16 2.11 2.18 2.18 2.14 2.25 2.41 2.42 2.41 2.42 2.60 2.71 2.90 2.93 2.85 2.72 2.57 2.40 2.24 1.91 2.00 1.90 1.64 1.59 1.49 1.60 1.79 1.88 1.92 1.85
0.45 0.49 0.57 0.67 0.84 0.97 1.05 1.17 1.34 1.54 1.81 1.94 2.05 2.09 2.12 2.13 2.01 1.91 2.01 2.11 2.20 2.26 2.25 2.30 2.45 2.61 2.80 2.95 2.88 2.70 2.62 2.55 2.38 2.23 1.93 1.78 1.83 1.66 1.56 1.61 1.73 1.82 1.97

GEFSSE_prec_meanprecacc_228.txt.gz
Total_Precipitation_Accumulation
1.68 1.78 2.75 2.76 2.27 2.00 2.00 1.94 1.92 1.95 1.96 1.93 1.85 1.72 1.64 1.48 1.25 1.10 0.98 0.86 0.82 0.88 0.86 0.79 0.76 0.69 0.58 0.49 0.50 0.61 0.71 0.84 0.92 0.93 1.05 1.12 1.10 1.24 1.40 1.61 1.85 2.08 1.80
1.41 1.71 2.72 2.73 2.25 1.87 1.78 1.74 1.86 1.93 1.91 1.82 1.75 1.73 1.55 1.40 1.23 1.08 0.98 0.87 0.79 0.85 0.90 0.87 0.85 0.74 0.60 0.56 0.61 0.68 0.73 0.81 0.95 1.02 1.25 1.37 1.30 1.33 1.23 1.41 1.69 1.94 1.80
1.42 1.59 2.10 2.45 2.22 1.86 1.74 1.83 1.88 1.84 1.83 1.82 1.74 1.76 1.47 1.32 1.24 1.11 1.03 0.95 0.87 0.80 0.83 0.94 0.94 0.83 0.66 0.65 0.72 0.81 0.90 0.96 1.06 1.16 1.67 2.34 1.75 1.48 1.47 1.56 1.67 1.66 1.69
1.43 1.45 1.71 2.26 2.09 1.84 1.79 1.89 1.94 1.89 1.85 1.89 1.78 1.58 1.32 1.27 1.22 1.20 1.18 1.11 0.98 0.86 0.81 0.86 0.88 0.81 0.75 0.73 0.77 0.84 1.02 1.12 1.21 1.27 1.67 2.24 2.15 1.78 1.59 1.63 1.68 1.55 1.63
1.37 1.44 1.85 2.14 1.99 1.83 1.68 1.74 1.86 1.82 1.79 1.85 1.75 1.47 1.25 1.15 1.15 1.18 1.21 1.16 1.05 1.01 0.89 0.86 0.84 0.78 0.77 0.70 0.76 0.88 1.00 1.11 1.30 1.23 1.51 2.00 2.38 1.91 1.51 1.63 1.77 1.63 1.68
1.25 1.32 1.62 1.95 1.94 1.80 1.62 1.64 1.53 1.43 1.43 1.56 1.54 1.36 1.20 1.20 1.15 1.14 1.10 1.07 1.06 1.04 0.98 0.91 0.85 0.80 0.77 0.72 0.77 0.88 1.01 1.10 1.15 1.28 1.59 2.04 2.28 1.89 1.51 1.58 1.79 1.88 1.86
1.17 1.13 1.35 1.64 1.68 1.67 1.64 1.58 1.51 1.36 1.36 1.37 1.33 1.25 1.15 1.14 1.13 1.10 1.00 0.91 0.91 0.95 0.93 0.88 0.82 0.77 0.69 0.68 0.73 0.80 0.94 0.91 0.96 1.30 1.57 1.93 1.87 1.67 1.44 1.55 1.83 2.01 1.97
1.16 1.06 1.14 1.34 1.36 1.31 1.34 1.55 1.58 1.32 1.34 1.30 1.17 1.13 1.10 1.00 1.00 0.98 0.89 0.87 0.89 0.98 0.98 0.88 0.79 0.72 0.66 0.67 0.75 0.81 0.92 0.76 0.68 0.96 1.26 1.70 1.86 1.73 1.43 1.42 1.65 1.81 1.95
1.27 1.12 1.05 1.02 1.05 1.16 1.32 1.30 1.24 1.26 1.38 1.32 1.12 1.05 1.08 0.93 0.84 0.81 0.83 0.88 0.89 0.97 1.01 0.93 0.80 0.69 0.68 0.73 0.81 0.82 0.86 0.80 0.73 0.89 1.02 1.45 1.77 1.74 1.43 1.34 1.48 1.59 1.82
1.16 1.03 0.91 0.85 0.88 0.96 1.10 1.18 1.14 1.12 1.20 1.19 1.10 1.08 1.09 0.89 0.78 0.78 0.82 0.94 1.00 1.00 1.07 1.01 0.84 0.76 0.75 0.79 0.79 0.74 0.71 0.65 0.70 0.79 1.08 1.25 1.76 1.75 1.41 1.26 1.31 1.38 1.46
1.02 0.93 0.85 0.78 0.80 0.86 0.92 0.96 1.07 1.09 1.10 1.02 0.94 0.97 0.88 0.69 0.68 0.73 0.78 1.05 1.17 1.25 1.25 1.17 1.06 0.94 0.85 0.78 0.77 0.73 0.58 0.56 0.74 0.85 1.09 1.42 1.76 1.70 1.41 1.26 1.30 1.24 1.19
1.00 0.90 0.82 0.82 0.79 0.77 0.77 1.02 1.16 1.03 0.94 0.83 0.85 0.83 0.80 0.79 0.80 0.67 0.77 0.98 1.00 1.09 1.15 1.14 1.13 0.97 0.76 0.61 0.64 0.64 0.51 0.60 0.70 0.78 1.01 1.53 1.75 1.73 1.54 1.34 1.26 1.19 1.12
0.96 0.87 0.77 0.78 0.70 0.64 0.75 0.93 1.10 1.14 1.11 1.07 0.93 0.92 0.87 0.79 0.71 0.61 0.63 0.72 0.77 0.85 0.84 0.93 0.96 0.78 0.63 0.60 0.61 0.54 0.51 0.58 0.68 0.77 1.04 1.61 1.83 1.81 1.68 1.43 1.30 1.22 1.19
0.83 0.86 0.74 0.71 0.61 0.56 0.54 0.64 0.80 0.85 0.85 0.86 0.87 0.81 0.82 0.85 0.80 0.70 0.70 0.77 0.80 0.78 0.87 0.91 0.93 0.80 0.67 0.56 0.54 0.55 0.58 0.61 0.72 0.88 1.10 1.49 1.83 1.90 1.86 1.61 1.50 1.41 1.34
0.77 0.76 0.75 0.70 0.64 0.68 0.65 0.60 0.58 0.63 0.69 0.74 0.81 0.73 0.69 0.73 0.79 0.80 0.76 0.83 0.80 0.81 0.89 0.87 0.74 0.72 0.68 0.58 0.56 0.59 0.68 0.68 0.80 0.87 1.03 1.32 1.75 2.16 2.21 2.01 1.76 1.58 1.58
0.70 0.78 0.77 0.67 0.68 0.67 0.62 0.64 0.65 0.64 0.67 0.70 0.74 0.67 0.61 0.62 0.66 0.78 0.78 0.85 0.77 0.83 0.95 0.85 0.75 0.76 0.76 0.66 0.59 0.64 0.68 0.71 0.78 0.92 1.04 1.22 1.44 1.87 2.26 2.33 2.16 1.95 1.80
0.57 0.69 0.77 0.73 0.74 0.70 0.66 0.69 0.72 0.71 0.65 0.67 0.70 0.63 0.58 0.63 0.64 0.76 0.82 0.82 0.80 0.85 0.89 0.92 0.91 0.85 0.76 0.69 0.67 0.66 0.67 0.71 0.88 1.00 1.04 1.17 1.18 1.24 1.71 2.28 2.51 2.42 2.21
0.54 0.60 0.70 0.71 0.76 0.77 0.76 0.78 0.78 0.73 0.72 0.75 0.76 0.71 0.66 0.66 0.69 0.88 0.93 0.83 0.89 1.00 1.06 1.11 1.07 0.98 0.88 0.85 0.87 0.84 0.77 0.82 1.02 1.11 1.05 1.00 1.03 0.96 1.08 1.42 1.78 2.06 2.32
0.57 0.56 0.59 0.65 0.84 0.85 0.81 0.87 0.89 0.87 0.93 0.95 0.94 0.90 0.85 0.82 0.89 1.06 1.13 1.05 1.03 1.19 1.19 1.08 1.13 1.17 1.08 1.10 1.07 1.07 0.98 0.98 1.04 1.00 1.00 1.07 1.11 1.09 1.09 0.96 1.10 1.35 1.86
0.55 0.51 0.54 0.62 0.76 0.85 0.98 1.06 1.14 1.15 1.16 1.28 1.35 1.31 1.13 1.08 1.13 1.29 1.39 1.35 1.31 1.45 1.46 1.35 1.46 1.47 1.39 1.45 1.32 1.22 1.16 1.14 1.12 1.09 1.09 1.17 1.27 1.18 1.20 1.08 1.01 0.87 1.10
0.44 0.43 0.47 0.63 0.80 0.94 1.03 1.17 1.41 1.57 1.67 1.67 1.68 1.73 1.64 1.44 1.53 1.64 1.62 1.84 1.92 1.91 1.91 1.86 1.99 2.03 1.78 1.62 1.94 1.91 1.53 1.24 1.12 1.20 1.28 1.32 1.41 1.43 1.37 1.30 1.22 1.04 0.95
0.35 0.36 0.41 0.56 0.80 1.02 1.21 1.38 1.56 1.88 2.04 2.05 2.12 2.04 1.98 1.86 1.88 1.80 1.88 2.10 2.16 2.28 2.37 2.22 2.36 2.46 2.14 1.85 2.28 2.74 2.32 1.89 1.30 1.08 1.20 1.33 1.47 1.53 1.45 1.34 1.33 1.28 1.18
0.28 0.30 0.33 0.46 0.69 0.98 1.27 1.52 1.71 1.94 2.19 2.29 2.19 2.16 2.18 2.24 2.27 2.16 2.11 2.24 2.27 2.35 2.56 2.61 2.56 2.68 2.61 2.27 2.24 2.71 2.67 2.34 1.94 1.41 1.24 1.30 1.44 1.55 1.62 1.63 1.47 1.44 1.34
0.29 0.30 0.34 0.46 0.62 0.82 1.07 1.39 1.64 1.89 2.20 2.28 2.25 2.24 2.28 2.37 2.44 2.38 2.33 2.40 2.41 2.38 2.51 2.60 2.57 2.80 3.01 2.75 2.47 2.24 2.19 2.24 2.30 1.92 1.50 1.36 1.47 1.54 1.67 1.65 1.68 1.73 1.67
0.34 0.36 0.44 0.56 0.68 0.85 1.07 1.38 1.70 1.87 2.03 2.23 2.26 2.17 2.11 2.18 2.18 2.14 2.25 2.41 2.42 2.41 2.43 2.60 2.71 2.91 2.93 2.86 2.73 2.58 2.42 2.25 1.93 2.01 1.92 1.66 1.61 1.51 1.61 1.80 1.88 1.93 1.85
0.46 0.52 0.60 0.71 0.88 1.01 1.07 1.19 1.35 1.56 1.83 1.96 2.07 2.11 2.13 2.14 2.01 1.91 2.01 2.11 2.20 2.26 2.26 2.31 2.45 2.61 2.81 2.95 2.89 2.70 2.63 2.57 2.39 2.24 1.94 1.79 1.85 1.68 1.57 1.61 1.73 1.82 1.97

GEFSSE_prec_meanprecacc_234.txt.gz
Total_Precipitation_Accumulation
1.70 1.82 2.84 2.86 2.38 2.17 2.26 2.13 2.07 2.05 2.05 2.03 1.94 1.81 1.71 1.54 1.31 1.14 1.02 0.93 0.88 0.93 0.91 0.84 0.82 0.74 0.62 0.53 0.54 0.66 0.76 0.89 0.97 0.98 1.10 1.16 1.14 1.27 1.45 1.66 1.90 2.14 1.89
1.44 1.77 2.81 2.83 2.34 1.97 1.94 1.90 2.01 2.04 1.98 1.91 1.83 1.81 1.63 1.46 1.30 1.13 1.02 0.93 0.86 0.92 0.95 0.93 0.91 0.80 0.65 0.61 0.66 0.75 0.80 0.88 1.01 1.07 1.29 1.42 1.35 1.40 1.30 1.48 1.75 2.02 1.90
1.44 1.63 2.16 2.54 2.32 1.97 1.85 1.94 2.01 1.91 1.87 1.87 1.81 1.83 1.54 1.39 1.31 1.17 1.07 1.01 0.94 0.86 0.86 0.99 1.00 0.90 0.73 0.73 0.86 0.93 0.99 1.03 1.11 1.20 1.71 2.38 1.81 1.55 1.55 1.64 1.75 1.74 1.78
1.44 1.47 1.75 2.33 2.18 1.95 1.89 1.99 2.02 1.94 1.90 1.93 1.83 1.63 1.37 1.33 1.28 1.25 1.23 1.17 1.04 0.90 0.85 0.90 0.93 0.88 0.81 0.83 0.92 0.99 1.14 1.18 1.24 1.29 1.70 2.28 2.21 1.85 1.67 1.69 1.75 1.65 1.73
1.38 1.47 1.91 2.23 2.07 1.91 1.75 1.81 1.91 1.85 1.83 1.89 1.80 1.53 1.31 1.21 1.20 1.23 1.27 1.21 1.12 1.06 0.94 0.90 0.87 0.82 0.81 0.78 0.88 0.99 1.06 1.14 1.32 1.25 1.54 2.04 2.44 2.00 1.60 1.69 1.83 1.70 1.76
1.26 1.37 1.72 2.03 1.99 1.87 1.69 1.68 1.56 1.47 1.49 1.61 1.59 1.42 1.26 1.26 1.22 1.21 1.18 1.12 1.13 1.12 1.04 0.95 0.88 0.84 0.82 0.76 0.81 0.91 1.03 1.12 1.16 1.30 1.62 2.10 2.36 1.97 1.58 1.63 1.84 1.94 1.94
1.20 1.17 1.41 1.69 1.74 1.73 1.69 1.60 1.53 1.40 1.42 1.43 1.38 1.31 1.23 1.22 1.20 1.14 1.04 0.95 0.96 1.02 1.00 0.94 0.87 0.81 0.74 0.72 0.77 0.82 0.95 0.92 0.97 1.32 1.60 1.98 1.94 1.75 1.49 1.60 1.88 2.08 2.06
1.18 1.10 1.19 1.40 1.44 1.37 1.38 1.58 1.62 1.36 1.39 1.35 1.22 1.18 1.17 1.07 1.04 1.02 0.91 0.91 0.94 1.02 1.02 0.94 0.86 0.78 0.73 0.72 0.78 0.83 0.93 0.77 0.69 0.97 1.29 1.75 1.94 1.80 1.48 1.47 1.71 1.87 2.03
1.30 1.17 1.10 1.06 1.10 1.21 1.38 1.34 1.27 1.30 1.42 1.36 1.16 1.10 1.12 0.97 0.87 0.84 0.86 0.91 0.93 1.02 1.06 0.97 0.86 0.77 0.76 0.78 0.84 0.85 0.88 0.80 0.75 0.93 1.07 1.53 1.87 1.83 1.51 1.42 1.56 1.65 1.87
1.19 1.07 0.94 0.87 0.92 1.00 1.13 1.21 1.18 1.17 1.24 1.23 1.14 1.13 1.13 0.92 0.80 0.81 0.84 0.97 1.04 1.04 1.12 1.06 0.89 0.81 0.79 0.83 0.83 0.76 0.73 0.67 0.72 0.84 1.16 1.34 1.86 1.86 1.51 1.33 1.37 1.42 1.50
1.03 0.94 0.87 0.78 0.81 0.88 0.94 0.98 1.09 1.12 1.13 1.05 0.96 0.99 0.91 0.72 0.71 0.76 0.81 1.10 1.21 1.30 1.28 1.20 1.09 0.96 0.87 0.81 0.80 0.75 0.59 0.57 0.76 0.89 1.16 1.51 1.85 1.78 1.49 1.31 1.34 1.26 1.22
1.01 0.91 0.83 0.82 0.79 0.77 0.78 1.03 1.17 1.03 0.95 0.85 0.87 0.84 0.82 0.82 0.86 0.73 0.80 1.01 1.04 1.11 1.16 1.15 1.14 0.99 0.78 0.64 0.66 0.66 0.53 0.62 0.72 0.80 1.06 1.59 1.83 1.81 1.61 1.39 1.29 1.21 1.15
0.97 0.88 0.77 0.79 0.71 0.64 0.76 0.93 1.10 1.14 1.11 1.07 0.93 0.93 0.88 0.81 0.74 0.63 0.64 0.73 0.78 0.86 0.85 0.94 0.98 0.80 0.66 0.62 0.64 0.56 0.53 0.59 0.70 0.79 1.09 1.67 1.90 1.88 1.76 1.50 1.34 1.25 1.21
0.84 0.87 0.75 0.71 0.62 0.56 0.54 0.64 0.80 0.85 0.85 0.86 0.87 0.81 0.83 0.87 0.85 0.73 0.72 0.78 0.81 0.79 0.88 0.93 0.95 0.85 0.70 0.59 0.56 0.57 0.59 0.62 0.73 0.91 1.14 1.56 1.91 1.97 1.94 1.70 1.56 1.46 1.38
0.79 0.77 0.75 0.71 0.65 0.69 0.65 0.61 0.59 0.63 0.69 0.74 0.81 0.74 0.69 0.75 0.83 0.82 0.77 0.84 0.82 0.84 0.92 0.89 0.77 0.78 0.73 0.61 0.58 0.60 0.69 0.68 0.81 0.89 1.05 1.37 1.82 2.24 2.30 2.11 1.84 1.65 1.66
0.72 0.79 0.78 0.68 0.69 0.68 0.63 0.64 0.66 0.65 0.67 0.70 0.75 0.67 0.62 0.63 0.67 0.79 0.79 0.87 0.82 0.89 0.98 0.86 0.79 0.81 0.81 0.69 0.62 0.66 0.69 0.71 0.79 0.93 1.04 1.24 1.48 1.93 2.36 2.42 2.24 2.03 1.87
0.61 0.71 0.78 0.74 0.75 0.72 0.68 0.70 0.72 0.71 0.65 0.67 0.71 0.63 0.59 0.64 0.64 0.77 0.83 0.86 0.87 0.91 0.93 0.94 0.94 0.88 0.80 0.72 0.69 0.67 0.67 0.72 0.89 1.01 1.05 1.19 1.20 1.28 1.76 2.34 2.56 2.49 2.27
0.59 0.62 0.71 0.71 0.77 0.79 0.77 0.79 0.78 0.73 0.72 0.75 0.76 0.71 0.67 0.66 0.69 0.88 0.94 0.85 0.92 1.03 1.09 1.12 1.09 1.00 0.90 0.87 0.89 0.85 0.78 0.82 1.03 1.12 1.06 1.02 1.06 0.99 1.12 1.47 1.82 2.11 2.39
0.61 0.59 0.61 0.66 0.85 0.86 0.82 0.88 0.90 0.88 0.93 0.95 0.94 0.90 0.85 0.82 0.89 1.06 1.14 1.05 1.04 1.20 1.20 1.09 1.14 1.18 1.09 1.11 1.07 1.07 0.99 0.99 1.05 1.01 1.02 1.09 1.14 1.12 1.12 0.99 1.13 1.38 1.91
0.58 0.54 0.56 0.64 0.77 0.87 1.00 1.07 1.15 1.16 1.17 1.29 1.35 1.31 1.14 1.08 1.13 1.29 1.39 1.35 1.31 1.45 1.47 1.35 1.48 1.49 1.40 1.46 1.32 1.22 1.17 1.15 1.13 1.10 1.11 1.20 1.31 1.21 1.22 1.10 1.03 0.89 1.13
0.47 0.47 0.51 0.65 0.82 0.95 1.05 1.18 1.42 1.58 1.68 1.69 1.68 1.73 1.64 1.45 1.53 1.64 1.62 1.85 1.92 1.91 1.92 1.87 2.01 2.05 1.80 1.63 1.95 1.93 1.54 1.25 1.13 1.21 1.30 1.35 1.46 1.46 1.39 1.32 1.24 1.06 0.96
0.39 0.40 0.46 0.59 0.82 1.04 1.23 1.40 1.58 1.89 2.05 2.05 2.12 2.05 1.98 1.86 1.88 1.80 1.88 2.11 2.17 2.29 2.39 2.24 2.38 2.48 2.16 1.86 2.30 2.77 2.34 1.91 1.31 1.09 1.23 1.38 1.55 1.57 1.47 1.36 1.34 1.30 1.21
0.30 0.33 0.39 0.49 0.71 1.00 1.29 1.53 1.73 1.95 2.21 2.29 2.20 2.16 2.18 2.24 2.28 2.16 2.11 2.25 2.28 2.36 2.58 2.62 2.57 2.69 2.63 2.28 2.24 2.74 2.71 2.37 1.96 1.43 1.27 1.34 1.51 1.61 1.64 1.64 1.48 1.46 1.36
0.30 0.34 0.40 0.49 0.63 0.84 1.10 1.41 1.65 1.90 2.22 2.30 2.27 2.25 2.29 2.37 2.44 2.39 2.33 2.40 2.42 2.39 2.53 2.61 2.58 2.81 3.03 2.77 2.49 2.26 2.21 2.26 2.32 1.94 1.52 1.39 1.52 1.60 1.71 1.67 1.69 1.74 1.69
0.36 0.40 0.49 0.58 0.70 0.86 1.09 1.40 1.72 1.89 2.05 2.24 2.27 2.18 2.12 2.19 2.19 2.15 2.25 2.41 2.43 2.42 2.44 2.61 2.72 2.92 2.94 2.88 2.75 2.60 2.43 2.27 1.94 2.02 1.93 1.68 1.64 1.55 1.66 1.82 1.89 1.93 1.86
0.48 0.55 0.66 0.73 0.90 1.03 1.09 1.21 1.37 1.58 1.85 1.97 2.08 2.12 2.14 2.15 2.02 1.92 2.02 2.11 2.20 2.27 2.26 2.31 2.46 2.62 2.82 2.97 2.90 2.72 2.66 2.60 2.41 2.25 1.95 1.81 1.87 1.71 1.61 1.64 1.74 1.83 1.97

GEFSSE_prec_meanprecacc_240.txt.gz
Total_Precipitation_Accumulation
1.77 1.88 2.88 2.89 2.41 2.23 2.34 2.23 2.21 2.20 2.16 2.14 2.05 1.91 1.81 1.62 1.38 1.23 1.09 0.97 0.91 0.96 0.94 0.90 0.89 0.80 0.67 0.57 0.57 0.69 0.79 0.92 0.99 1.00 1.11 1.17 1.17 1.31 1.49 1.74 2.00 2.21 1.96
1.50 1.82 2.85 2.86 2.38 2.02 2.03 2.04 2.11 2.12 2.07 2.03 1.92 1.89 1.70 1.55 1.38 1.20 1.07 0.97 0.90 0.96 1.00 1.01 0.97 0.86 0.69 0.64 0.69 0.79 0.84 0.92 1.03 1.10 1.34 1.47 1.41 1.46 1.37 1.54 1.83 2.11 1.97
1.48 1.67 2.20 2.57 2.36 2.00 1.89 1.99 2.06 1.97 1.94 1.93 1.87 1.90 1.59 1.45 1.38 1.23 1.11 1.05 0.98 0.90 0.92 1.06 1.07 0.97 0.83 0.82 0.90 0.97 1.03 1.06 1.13 1.25 1.82 2.53 1.89 1.61 1.63 1.72 1.83 1.83 1.86
1.47 1.51 1.79 2.38 2.23 2.00 1.94 2.04 2.05 1.97 1.95 1.97 1.88 1.69 1.42 1.39 1.34 1.29 1.26 1.21 1.09 0.95 0.90 0.96 0.99 1.00 0.99 0.93 0.97 1.03 1.18 1.22 1.29 1.39 1.81 2.41 2.30 1.91 1.74 1.77 1.82 1.71 1.79
1.40 1.50 1.94 2.28 2.13 1.95 1.79 1.84 1.93 1.87 1.86 1.94 1.85 1.57 1.34 1.24 1.23 1.26 1.32 1.27 1.18 1.11 1.00 0.96 0.92 0.91 0.98 0.94 0.96 1.04 1.10 1.18 1.38 1.33 1.61 2.13 2.52 2.06 1.66 1.76 1.91 1.76 1.80
1.30 1.40 1.73 2.05 2.03 1.89 1.71 1.71 1.57 1.49 1.52 1.66 1.64 1.47 1.29 1.28 1.24 1.24 1.24 1.19 1.19 1.15 1.08 1.00 0.92 0.87 0.86 0.81 0.86 0.96 1.07 1.16 1.22 1.37 1.70 2.19 2.44 2.01 1.61 1.67 1.90 1.98 1.98
1.24 1.20 1.42 1.72 1.77 1.75 1.71 1.62 1.55 1.41 1.46 1.48 1.43 1.37 1.28 1.26 1.24 1.20 1.09 0.99 1.01 1.05 1.04 0.98 0.91 0.85 0.78 0.76 0.81 0.87 1.00 0.98 1.03 1.39 1.68 2.08 2.01 1.78 1.52 1.63 1.93 2.13 2.14
1.23 1.13 1.21 1.43 1.47 1.39 1.41 1.60 1.63 1.37 1.42 1.39 1.27 1.23 1.24 1.15 1.13 1.08 0.94 0.93 0.96 1.03 1.05 0.97 0.90 0.82 0.77 0.76 0.83 0.88 1.00 0.83 0.76 1.05 1.37 1.83 1.99 1.84 1.52 1.51 1.76 1.93 2.10
1.34 1.20 1.12 1.07 1.12 1.23 1.40 1.36 1.28 1.31 1.44 1.40 1.21 1.14 1.17 1.02 0.91 0.87 0.88 0.94 0.95 1.04 1.08 1.00 0.90 0.81 0.79 0.81 0.90 0.91 0.93 0.85 0.81 1.02 1.15 1.61 1.95 1.91 1.59 1.49 1.63 1.71 1.93
1.22 1.09 0.96 0.88 0.93 1.02 1.15 1.23 1.21 1.19 1.27 1.27 1.19 1.17 1.16 0.95 0.82 0.84 0.87 1.01 1.07 1.08 1.15 1.09 0.91 0.84 0.81 0.85 0.87 0.80 0.76 0.71 0.77 0.91 1.27 1.47 2.00 1.98 1.61 1.42 1.44 1.49 1.56
1.04 0.96 0.88 0.79 0.83 0.90 0.96 0.99 1.11 1.14 1.16 1.08 0.99 1.03 0.95 0.75 0.73 0.78 0.83 1.13 1.25 1.32 1.31 1.23 1.11 0.98 0.89 0.83 0.82 0.76 0.61 0.59 0.79 0.93 1.23 1.59 1.95 1.88 1.57 1.37 1.39 1.32 1.28
1.02 0.92 0.83 0.83 0.81 0.79 0.79 1.04 1.19 1.04 0.96 0.86 0.89 0.85 0.84 0.84 0.88 0.74 0.81 1.03 1.05 1.12 1.17 1.17 1.16 1.01 0.81 0.66 0.67 0.67 0.55 0.64 0.75 0.83 1.10 1.65 1.90 1.88 1.67 1.44 1.33 1.25 1.19
0.97 0.88 0.78 0.80 0.73 0.67 0.78 0.94 1.12 1.15 1.12 1.09 0.94 0.94 0.90 0.82 0.76 0.64 0.65 0.74 0.79 0.87 0.87 0.96 0.99 0.82 0.67 0.63 0.64 0.58 0.55 0.63 0.73 0.83 1.14 1.73 1.95 1.93 1.82 1.55 1.38 1.28 1.24
0.86 0.89 0.77 0.74 0.65 0.58 0.55 0.65 0.80 0.85 0.86 0.87 0.89 0.82 0.84 0.88 0.86 0.74 0.73 0.79 0.82 0.81 0.90 0.95 0.98 0.87 0.71 0.59 0.57 0.59 0.64 0.66 0.77 0.96 1.20 1.62 1.98 2.03 2.00 1.77 1.61 1.49 1.41
0.81 0.80 0.77 0.74 0.69 0.71 0.66 0.61 0.59 0.63 0.69 0.75 0.82 0.74 0.69 0.75 0.84 0.83 0.79 0.86 0.84 0.86 0.94 0.91 0.79 0.80 0.75 0.63 0.61 0.63 0.72 0.73 0.85 0.94 1.10 1.41 1.87 2.30 2.36 2.18 1.88 1.70 1.70
0.76 0.82 0.80 0.72 0.73 0.70 0.64 0.65 0.66 0.65 0.67 0.70 0.75 0.68 0.62 0.64 0.68 0.80 0.81 0.90 0.85 0.91 0.99 0.88 0.80 0.83 0.83 0.71 0.65 0.69 0.72 0.74 0.81 0.96 1.07 1.26 1.50 1.97 2.41 2.48 2.28 2.08 1.92
0.63 0.74 0.82 0.77 0.78 0.74 0.69 0.70 0.72 0.71 0.66 0.67 0.71 0.64 0.59 0.64 0.66 0.79 0.87 0.91 0.90 0.93 0.94 0.95 0.95 0.90 0.83 0.75 0.73 0.71 0.70 0.73 0.90 1.02 1.06 1.20 1.22 1.30 1.79 2.38 2.60 2.53 2.31
0.61 0.65 0.74 0.73 0.78 0.80 0.79 0.79 0.78 0.73 0.72 0.75 0.77 0.72 0.67 0.67 0.70 0.91 0.98 0.90 0.95 1.05 1.11 1.15 1.11 1.03 0.94 0.91 0.93 0.89 0.79 0.84 1.04 1.14 1.07 1.04 1.09 1.02 1.15 1.49 1.85 2.14 2.42
0.61 0.60 0.63 0.67 0.86 0.87 0.84 0.89 0.90 0.88 0.94 0.95 0.95 0.91 0.85 0.82 0.90 1.07 1.15 1.07 1.06 1.23 1.22 1.12 1.17 1.22 1.14 1.15 1.10 1.09 1.01 1.01 1.07 1.03 1.03 1.10 1.16 1.14 1.15 1.03 1.15 1.40 1.94
0.59 0.55 0.57 0.64 0.78 0.87 1.00 1.08 1.16 1.16 1.17 1.29 1.35 1.31 1.14 1.08 1.13 1.29 1.39 1.35 1.32 1.46 1.48 1.37 1.50 1.52 1.44 1.48 1.34 1.24 1.18 1.16 1.15 1.13 1.12 1.21 1.33 1.23 1.24 1.13 1.05 0.90 1.15
0.48 0.48 0.52 0.66 0.82 0.96 1.07 1.19 1.44 1.59 1.69 1.69 1.69 1.74 1.65 1.45 1.53 1.65 1.62 1.85 1.92 1.92 1.93 1.89 2.04 2.09 1.83 1.66 1.98 1.95 1.56 1.27 1.16 1.23 1.32 1.36 1.47 1.48 1.42 1.35 1.27 1.07 0.98
0.39 0.42 0.48 0.60 0.83 1.05 1.25 1.42 1.60 1.91 2.06 2.06 2.13 2.06 1.99 1.87 1.89 1.80 1.88 2.12 2.18 2.30 2.41 2.26 2.41 2.52 2.19 1.90 2.35 2.82 2.39 1.93 1.33 1.11 1.24 1.39 1.56 1.59 1.51 1.39 1.36 1.32 1.23
0.31 0.36 0.42 0.51 0.72 1.01 1.31 1.55 1.74 1.96 2.22 2.31 2.21 2.17 2.19 2.26 2.29 2.17 2.12 2.26 2.29 2.38 2.61 2.65 2.59 2.73 2.68 2.33 2.29 2.81 2.77 2.41 1.98 1.44 1.28 1.35 1.53 1.65 1.69 1.67 1.51 1.49 1.39
0.31 0.36 0.44 0.53 0.65 0.85 1.11 1.42 1.67 1.92 2.24 2.31 2.28 2.26 2.30 2.38 2.45 2.39 2.34 2.41 2.44 2.41 2.55 2.62 2.59 2.85 3.09 2.83 2.54 2.30 2.24 2.29 2.34 1.95 1.54 1.40 1.53 1.63 1.76 1.71 1.72 1.77 1.71
0.37 0.41 0.52 0.62 0.72 0.88 1.10 1.41 1.73 1.92 2.08 2.27 2.28 2.18 2.12 2.19 2.19 2.15 2.26 2.42 2.44 2.43 2.45 2.62 2.74 2.95 2.99 2.94 2.81 2.65 2.46 2.31 1.97 2.04 1.95 1.70 1.65 1.56 1.69 1.86 1.92 1.95 1.88
0.49 0.56 0.68 0.77 0.92 1.04 1.10 1.21 1.38 1.60 1.88 2.00 2.10 2.13 2.15 2.16 2.02 1.92 2.02 2.12 2.21 2.27 2.27 2.33 2.49 2.65 2.85 3.00 2.94 2.77 2.71 2.65 2.45 2.27 1.97 1.82 1.88 1.73 1.63 1.67 1.76 1.85 1.99

GEFSSE_prec_meanprecacc_246.txt.gz
Total_Precipitation_Accumulation
1.84 1.94 2.95 2.94 2.44 2.26 2.38 2.28 2.26 2.24 2.20 2.18 2.08 1.95 1.85 1.68 1.43 1.27 1.12 1.00 0.94 0.99 0.96 0.92 0.92 0.84 0.72 0.62 0.63 0.75 0.85 0.97 1.02 1.04 1.16 1.22 1.21 1.36 1.54 1.78 2.04 2.24 2.01
1.55 1.86 2.92 2.92 2.41 2.04 2.05 2.07 2.16 2.16 2.13 2.08 1.97 1.94 1.75 1.61 1.44 1.25 1.10 1.01 0.94 1.00 1.04 1.04 1.01 0.90 0.73 0.67 0.72 0.85 0.89 0.97 1.07 1.16 1.39 1.52 1.47 1.52 1.40 1.57 1.85 2.14 2.00
1.51 1.70 2.24 2.63 2.39 2.03 1.91 2.01 2.09 2.00 1.98 1.98 1.91 1.95 1.63 1.51 1.43 1.28 1.15 1.10 1.05 0.98 0.96 1.11 1.15 1.06 0.89 0.85 0.93 1.00 1.08 1.10 1.17 1.29 1.85 2.55 1.92 1.66 1.68 1.75 1.87 1.87 1.89
1.49 1.53 1.81 2.41 2.27 2.02 1.96 2.05 2.07 2.00 1.98 2.01 1.91 1.73 1.45 1.42 1.39 1.34 1.31 1.26 1.14 1.00 0.96 1.02 1.12 1.14 1.05 0.98 1.01 1.06 1.23 1.27 1.33 1.42 1.83 2.42 2.32 1.95 1.79 1.82 1.86 1.75 1.82
1.41 1.51 1.97 2.30 2.16 1.97 1.80 1.84 1.95 1.90 1.90 1.98 1.87 1.60 1.37 1.27 1.27 1.30 1.36 1.31 1.23 1.15 1.05 1.00 0.99 1.05 1.08 0.99 1.00 1.07 1.14 1.21 1.41 1.36 1.62 2.14 2.54 2.11 1.71 1.82 1.95 1.80 1.84
1.30 1.40 1.75 2.07 2.04 1.91 1.72 1.72 1.60 1.53 1.58 1.72 1.68 1.50 1.33 1.32 1.28 1.28 1.28 1.24 1.22 1.17 1.09 1.02 0.95 0.92 0.93 0.87 0.91 1.00 1.10 1.18 1.25 1.39 1.71 2.20 2.47 2.07 1.66 1.71 1.94 2.02 2.04
1.25 1.20 1.44 1.73 1.78 1.76 1.72 1.63 1.56 1.44 1.50 1.52 1.47 1.40 1.31 1.29 1.28 1.23 1.13 1.03 1.03 1.07 1.05 1.00 0.94 0.88 0.82 0.81 0.86 0.92 1.04 1.01 1.05 1.41 1.70 2.10 2.05 1.84 1.56 1.67 1.98 2.19 2.20
1.24 1.13 1.22 1.45 1.49 1.40 1.41 1.61 1.65 1.40 1.45 1.43 1.31 1.28 1.27 1.20 1.18 1.13 0.97 0.95 0.97 1.05 1.07 1.00 0.94 0.86 0.81 0.81 0.88 0.93 1.05 0.86 0.77 1.07 1.38 1.86 2.05 1.89 1.55 1.54 1.81 2.00 2.15
1.36 1.21 1.13 1.08 1.13 1.24 1.40 1.38 1.32 1.37 1.50 1.45 1.26 1.20 1.22 1.05 0.94 0.90 0.91 0.96 0.97 1.06 1.10 1.03 0.94 0.85 0.83 0.85 0.94 0.95 0.98 0.87 0.83 1.04 1.16 1.63 2.01 1.95 1.62 1.52 1.66 1.76 1.97
1.22 1.10 0.97 0.89 0.94 1.02 1.16 1.25 1.23 1.23 1.32 1.32 1.22 1.21 1.21 0.99 0.85 0.88 0.92 1.05 1.08 1.10 1.17 1.11 0.95 0.87 0.85 0.88 0.90 0.83 0.79 0.72 0.78 0.92 1.29 1.50 2.06 2.03 1.65 1.45 1.46 1.51 1.59
1.05 0.96 0.88 0.79 0.83 0.91 0.97 1.01 1.13 1.16 1.19 1.11 1.02 1.05 0.97 0.77 0.75 0.81 0.86 1.17 1.27 1.35 1.33 1.25 1.14 1.01 0.91 0.85 0.84 0.78 0.63 0.61 0.80 0.94 1.24 1.64 2.03 1.96 1.63 1.42 1.43 1.35 1.31
1.03 0.92 0.84 0.83 0.81 0.80 0.80 1.05 1.20 1.04 0.96 0.87 0.89 0.86 0.84 0.85 0.90 0.76 0.83 1.07 1.08 1.15 1.19 1.18 1.18 1.04 0.82 0.67 0.69 0.68 0.56 0.66 0.76 0.84 1.13 1.73 1.98 1.95 1.71 1.48 1.35 1.27 1.21
0.99 0.89 0.78 0.80 0.74 0.68 0.79 0.95 1.13 1.16 1.12 1.09 0.95 0.95 0.90 0.83 0.77 0.66 0.67 0.77 0.81 0.88 0.88 0.97 1.01 0.84 0.69 0.64 0.65 0.59 0.56 0.63 0.74 0.84 1.19 1.83 2.05 2.02 1.88 1.61 1.41 1.30 1.28
0.89 0.92 0.78 0.76 0.68 0.60 0.56 0.65 0.81 0.86 0.86 0.88 0.89 0.83 0.84 0.89 0.87 0.76 0.74 0.80 0.84 0.82 0.92 0.97 0.99 0.88 0.72 0.60 0.58 0.60 0.64 0.67 0.78 0.97 1.24 1.70 2.05 2.09 2.06 1.84 1.66 1.52 1.43
0.86 0.84 0.79 0.77 0.73 0.73 0.69 0.62 0.59 0.64 0.70 0.76 0.84 0.76 0.70 0.76 0.85 0.84 0.80 0.87 0.85 0.88 0.95 0.93 0.80 0.81 0.75 0.63 0.61 0.64 0.73 0.74 0.86 0.96 1.12 1.46 1.93 2.36 2.42 2.25 1.94 1.74 1.73
0.79 0.86 0.83 0.76 0.77 0.71 0.66 0.66 0.67 0.65 0.67 0.71 0.76 0.69 0.64 0.65 0.70 0.81 0.82 0.91 0.87 0.93 1.01 0.89 0.82 0.85 0.84 0.72 0.66 0.70 0.73 0.75 0.83 0.97 1.08 1.28 1.53 2.02 2.47 2.54 2.34 2.13 1.97
0.67 0.78 0.86 0.82 0.83 0.76 0.70 0.71 0.73 0.71 0.66 0.67 0.72 0.65 0.60 0.65 0.66 0.80 0.88 0.92 0.91 0.94 0.96 0.97 0.97 0.92 0.84 0.76 0.76 0.74 0.72 0.74 0.91 1.03 1.07 1.20 1.23 1.31 1.82 2.43 2.66 2.58 2.37
0.65 0.68 0.78 0.79 0.81 0.81 0.79 0.80 0.79 0.74 0.73 0.75 0.77 0.72 0.67 0.67 0.71 0.92 0.99 0.91 0.96 1.07 1.12 1.16 1.12 1.04 0.96 0.95 0.96 0.90 0.81 0.85 1.05 1.14 1.08 1.04 1.09 1.02 1.16 1.52 1.88 2.19 2.48
0.65 0.63 0.65 0.70 0.88 0.89 0.85 0.90 0.91 0.90 0.96 0.97 0.96 0.92 0.86 0.83 0.91 1.08 1.16 1.08 1.07 1.23 1.23 1.13 1.18 1.23 1.18 1.20 1.12 1.10 1.03 1.03 1.08 1.04 1.04 1.11 1.16 1.14 1.16 1.04 1.18 1.44 1.98
0.61 0.57 0.59 0.67 0.79 0.89 1.02 1.09 1.17 1.19 1.20 1.32 1.37 1.33 1.15 1.10 1.15 1.30 1.41 1.38 1.33 1.47 1.50 1.38 1.52 1.58 1.48 1.51 1.35 1.25 1.19 1.17 1.16 1.14 1.14 1.22 1.33 1.23 1.24 1.14 1.08 0.93 1.18
0.50 0.49 0.54 0.68 0.84 0.97 1.08 1.21 1.45 1.61 1.71 1.71 1.71 1.75 1.66 1.47 1.54 1.67 1.65 1.88 1.94 1.93 1.95 1.91 2.08 2.12 1.84 1.67 1.99 1.96 1.56 1.27 1.17 1.24 1.33 1.37 1.48 1.49 1.43 1.36 1.28 1.08 0.99
0.40 0.43 0.50 0.63 0.85 1.07 1.27 1.44 1.61 1.92 2.08 2.08 2.14 2.07 2.00 1.88 1.89 1.82 1.91 2.15 2.21 2.32 2.43 2.28 2.43 2.53 2.21 1.91 2.36 2.83 2.40 1.94 1.35 1.12 1.24 1.40 1.57 1.60 1.52 1.40 1.39 1.34 1.25
0.32 0.37 0.44 0.53 0.75 1.04 1.32 1.57 1.75 1.97 2.23 2.31 2.21 2.18 2.19 2.26 2.29 2.17 2.13 2.27 2.31 2.41 2.64 2.68 2.62 2.75 2.69 2.34 2.30 2.82 2.78 2.42 1.99 1.46 1.29 1.37 1.55 1.66 1.71 1.69 1.53 1.52 1.44
0.31 0.36 0.45 0.54 0.67 0.87 1.13 1.44 1.68 1.92 2.25 2.32 2.28 2.26 2.31 2.38 2.45 2.40 2.35 2.43 2.46 2.45 2.58 2.65 2.63 2.88 3.11 2.85 2.55 2.31 2.26 2.31 2.35 1.96 1.55 1.41 1.54 1.65 1.78 1.73 1.74 1.80 1.77
0.38 0.42 0.53 0.63 0.74 0.90 1.13 1.44 1.75 1.92 2.08 2.27 2.29 2.19 2.13 2.19 2.19 2.15 2.26 2.42 2.45 2.46 2.47 2.65 2.77 2.98 3.02 2.97 2.84 2.67 2.48 2.32 1.98 2.05 1.96 1.70 1.66 1.58 1.71 1.88 1.95 1.99 1.93
0.49 0.58 0.70 0.78 0.94 1.06 1.13 1.24 1.40 1.61 1.89 2.01 2.11 2.14 2.16 2.16 2.03 1.93 2.04 2.13 2.22 2.29 2.30 2.35 2.51 2.67 2.88 3.02 2.96 2.79 2.72 2.66 2.46 2.28 1.98 1.83 1.89 1.74 1.65 1.69 1.80 1.88 2.01